HAIYANG 1D (45721 NORAD) Tracking and Keplerian Element Data

This shows tracking and keplerian element data for the satellite.

Feedback or suggestion? Click here.




ElementValue
Catalog45721
NameHAIYANG 1D
Epoch Orbit325
Epoch Day185.42109081
Epoch Year2020
RAAN126.2483
Inclination98.4427
Eccentricity0.0011428
Argument of Perigee193.0124
Mean Anonmoly167.0765
Mean Motion14.3424136
Decay Rate1E-07
L11 45721U 20036A 20185.42109081 .00000010 00000-0 18718-4 0 9991
L22 45721 98.4427 126.2483 0011428 193.0124 167.0765 14.34241360 3257

Live tracking and technical data element details for HAIYANG 1D (NORAD 45721). HAIYANG 1D can be tracked NOW for your location showing map with azimuth and elevation plus other details from your city location.

Track the satellite on the map from your city or location and see movement details for azimuth, elevation, latitude, longitude, range, height, and movement on the map or in text.







IsCatalogInMostPopularTable: catalog: 45721, numindb: 3
Update: records affected: 1



GetName: 45721 HAIYANG 1D

Hit Count: updated at: Sat, 04 Jul 2020 02:47:54 GMT